FENGYUN 1C DEB

Satellite information

Favourite Embed

Satellite Type and Status

DEBRISIN ORBIT

Key statistics

Satellite FENGYUN 1C DEB at a glance.

Uptime

9715

Days in orbit

Revolutions

≈ 14.9

Per day

Orbit

SSO

Sun Synchronous Orbit

Inclination

99.0

Latest

Satellite identification and parameters

Extended collection of information and parameters for FENGYUN 1C DEB.

Object identification

Identified? True

Debris? True

Object name: FENGYUN 1C DEB

International designator: 1999-025ARC

Object number (NORAD): 30694

Object ID (CCSDS): 30694

Country: PEOPLES REPUBLIC OF CHINA (PRC)

Current information (Y/N): Y

RCS size: SMALL

Orbital parameters

Period: 96.877 minutes

Inclination: 99.0474 deg

SMA: 6987.29 km

Apoapsis: 700.503 km

Periapsis: 517.806 km

RAAN: 311.4447 deg

Eccentricy: 0.01307349

Argument of periapsis: 298.9978 deg

Mean anomaly: 59.8182 deg

Mean motion: 14.86413486 rev/day

Mean motion (dot): 0.00030171 rev/day2

B* drag term: 0.002921039 1/REarth

Two-line elements (TLE)

Creation date: Dec. 11, 2025, 7:14 p.m.

Reference frame: TEME

Reference center: EARTH

Epoch: Dec. 11, 2025, 10:13 a.m. UTC

TLE line 0: 0 FENGYUN 1C DEB

TLE line 1: 1 30694U 99025ARC 25345.42618972 .00030171 00000-0 29210-2 0 9993

TLE line 2: 2 30694 99.0474 311.4447 0130735 298.9978 59.8182 14.86413486 763

Live tracking on map

Real-time ground track for satellite FENGYUN 1C DEB.

In-orbit conjunctions

A list of the most updated potential collisions computed for object FENGYUN 1C DEB.

Target Orbit TCA Probability of collision Miss distance Type
OBJECT C SSO 2025-11-24 17:47:59 0.0003297487 298.0 (m) UNKNOWN
SL-14 R/B LEO 2025-06-03 21:00:17 0.0001494269 369.0 (m) ROCKET BODY
FENGYUN 1C DEB SSO 2024-07-23 13:46:48 0.0001881656 176.0 (m) DEBRIS

Associated space launch

Chinese polar orbiting meteorological satellite

FENGYUN 1C DEB was lifted into orbit during the mission ‘Long March 4B | Feng Yun 1C’, on board a Long March 4B space rocket.

The launch took place on May 10, 1999, 1:33 a.m. from Launch Complex 7.

For more information about the launch, click the button.

Launch to space Long March 4B | Feng Yun 1C
Long March 4B | Feng Yun 1C

Agency: N/A

Status: Launch Successful

Launch date: May 10, 1999, 1:33 a.m. UTC

Rocket: Long March 4B

Launch pad: Launch Complex 7

Location: Taiyuan Satellite Launch Center, People's Republic of China

...

Latest news about this satellite

There are no fresh news available about this satellite. Check back as we update our databases every day.


Newsletter sign-up

Weekly statistics, charts and insights to help you stay on top of the space industry.